Voltar ao catálogo

SL-14 R/B

AtivoPO
NORAD 16194·ROCKET BODY·🇷🇺 Russia

Lançado Oct 24, 1985 de Plesetsk Cosmodrome

Loading…

Próximas Passagens (próximas 24 horas)

TLE

AtualizadoSource: Space-Track

Época: Sep 14, 2026, 13:57 UTC

1 16194U 85100B   26257.58175199  .00000023  00000-0  34209-4 0  9999
2 16194  82.6026 200.1689 0015660 299.9160 234.1004 13.06838600949851

Acompanhe SL-14 R/B em tempo real com AllMySat

Download on the App Store